N22RF KPDK-KAPF

Flight info

Callsign N22RF
Flight time 1h 21m
Altitude 43000
Route SOTWO LUCKK HONID/N0434F410 Q81 NICKI/N0432F430 PLYER PIKKR7
Aircraft C25C/M-SDE2E3FGHRWXY/LB1

Departure

Time 2026-04-12 17:08
Airport DeKalb Peachtree Airport (KPDK)

Arrival

Time 2026-04-12 18:29
Airport Naples Municipal Airport (KAPF)
Time Latitude Longitude Altitude Speed Heading
2026-04-12 16:53 33.88026 -84.30540 987 ft 0 kts 247°
2026-04-12 17:04 33.88024 -84.30543 987 ft 0 kts 234°
2026-04-12 17:04 33.88005 -84.30520 975 ft 13 kts 105°
2026-04-12 17:05 33.87965 -84.30439 994 ft 11 kts 67°
2026-04-12 17:05 33.88007 -84.30295 992 ft 23 kts 88°
2026-04-12 17:05 33.88008 -84.30149 993 ft 12 kts 32°
2026-04-12 17:05 33.88116 -84.30100 992 ft 18 kts 21°
2026-04-12 17:06 33.88235 -84.30046 990 ft 19 kts 20°
2026-04-12 17:06 33.88363 -84.29989 986 ft 21 kts 20°
2026-04-12 17:06 33.88459 -84.29924 987 ft 11 kts 81°
2026-04-12 17:06 33.88436 -84.29833 985 ft 12 kts 111°
2026-04-12 17:07 33.88407 -84.29744 988 ft 11 kts 118°
2026-04-12 17:07 33.88382 -84.29718 987 ft 0 kts 192°
2026-04-12 17:07 33.88301 -84.29755 987 ft 40 kts 200°
2026-04-12 17:07 33.87713 -84.30021 1081 ft 131 kts 201°
2026-04-12 17:08 33.86848 -84.30427 2237 ft 133 kts 202°
2026-04-12 17:08 33.85955 -84.30834 3505 ft 150 kts 203°
2026-04-12 17:08 33.85290 -84.31882 4510 ft 184 kts 261°
2026-04-12 17:08 33.85217 -84.33535 5635 ft 210 kts 261°
2026-04-12 17:09 33.85134 -84.35352 6591 ft 230 kts 263°
2026-04-12 17:09 33.85105 -84.37381 7329 ft 256 kts 264°
2026-04-12 17:09 33.85058 -84.39626 7988 ft 279 kts 264°
2026-04-12 17:09 33.84812 -84.41917 9135 ft 273 kts 245°
2026-04-12 17:10 33.83607 -84.43615 10295 ft 271 kts 210°
2026-04-12 17:10 33.81773 -84.44297 10816 ft 295 kts 183°
2026-04-12 17:10 33.79674 -84.44179 11546 ft 304 kts 180°
2026-04-12 17:10 33.77545 -84.44230 12449 ft 309 kts 181°
2026-04-12 17:11 33.75371 -84.44150 13236 ft 317 kts 178°
2026-04-12 17:11 33.73149 -84.44070 14109 ft 321 kts 180°
2026-04-12 17:11 33.70900 -84.44013 14854 ft 326 kts 180°
2026-04-12 17:11 33.68600 -84.43962 15521 ft 333 kts 180°
2026-04-12 17:12 33.66263 -84.43900 16233 ft 338 kts 180°
2026-04-12 17:12 33.63895 -84.43837 16914 ft 343 kts 181°
2026-04-12 17:12 33.61487 -84.43777 17553 ft 349 kts 181°
2026-04-12 17:12 33.59037 -84.43712 18213 ft 354 kts 181°
2026-04-12 17:13 33.56555 -84.43649 18826 ft 359 kts 181°
2026-04-12 17:13 33.54040 -84.43585 19376 ft 364 kts 181°
2026-04-12 17:13 33.51493 -84.43514 19934 ft 368 kts 181°
2026-04-12 17:13 33.48918 -84.43455 20521 ft 372 kts 180°
2026-04-12 17:14 33.46315 -84.43386 21099 ft 376 kts 181°
2026-04-12 17:14 33.43683 -84.43314 21658 ft 381 kts 181°
2026-04-12 17:14 33.41019 -84.43249 22247 ft 384 kts 180°
2026-04-12 17:14 33.38325 -84.43180 22798 ft 388 kts 181°
2026-04-12 17:15 33.35644 -84.43111 23351 ft 392 kts 180°
2026-04-12 17:15 33.32898 -84.43041 23901 ft 396 kts 181°
2026-04-12 17:15 33.30127 -84.42968 24369 ft 400 kts 181°
2026-04-12 17:15 33.27334 -84.42899 24846 ft 403 kts 181°
2026-04-12 17:16 33.24519 -84.42825 25328 ft 406 kts 181°
2026-04-12 17:16 33.21678 -84.42750 25787 ft 409 kts 181°
2026-04-12 17:16 33.18815 -84.42681 26244 ft 413 kts 181°
2026-04-12 17:16 33.15925 -84.42604 26694 ft 416 kts 181°
2026-04-12 17:17 33.13019 -84.42534 27127 ft 419 kts 181°
2026-04-12 17:17 33.10097 -84.42455 27547 ft 422 kts 181°
2026-04-12 17:17 33.07193 -84.42384 27937 ft 424 kts 181°
2026-04-12 17:17 33.04227 -84.42306 28317 ft 427 kts 181°
2026-04-12 17:18 33.01247 -84.42239 28707 ft 429 kts 181°
2026-04-12 17:18 32.98267 -84.42189 29216 ft 428 kts 181°
2026-04-12 17:18 32.95287 -84.42127 29734 ft 428 kts 181°
2026-04-12 17:18 32.92308 -84.42070 30276 ft 427 kts 181°
2026-04-12 17:19 32.89339 -84.42004 30747 ft 427 kts 181°
2026-04-12 17:19 32.86374 -84.41945 31156 ft 427 kts 181°
2026-04-12 17:19 32.83400 -84.41887 31574 ft 426 kts 181°
2026-04-12 17:19 32.80430 -84.41827 31983 ft 426 kts 181°
2026-04-12 17:20 32.77464 -84.41766 32396 ft 426 kts 181°
2026-04-12 17:20 32.74498 -84.41706 32814 ft 427 kts 180°
2026-04-12 17:20 32.71529 -84.41647 33241 ft 427 kts 181°
2026-04-12 17:20 32.68561 -84.41586 33687 ft 426 kts 180°
2026-04-12 17:21 32.65596 -84.41528 34123 ft 426 kts 180°
2026-04-12 17:21 32.62629 -84.41465 34516 ft 426 kts 180°
2026-04-12 17:21 32.59666 -84.41409 34879 ft 426 kts 180°
2026-04-12 17:21 32.56735 -84.41348 35242 ft 425 kts 181°
2026-04-12 17:22 32.53778 -84.41289 35596 ft 425 kts 181°
2026-04-12 17:22 32.50824 -84.41232 35938 ft 425 kts 181°
2026-04-12 17:22 32.47863 -84.41169 36270 ft 424 kts 181°
2026-04-12 17:22 32.44916 -84.41113 36615 ft 423 kts 181°
2026-04-12 17:23 32.41971 -84.41052 36950 ft 423 kts 181°
2026-04-12 17:23 32.39029 -84.40995 37283 ft 422 kts 181°
2026-04-12 17:23 32.36083 -84.40934 37620 ft 422 kts 181°
2026-04-12 17:23 32.33149 -84.40877 37952 ft 422 kts 181°
2026-04-12 17:24 32.30213 -84.40819 38288 ft 421 kts 182°
2026-04-12 17:24 32.27286 -84.40759 38629 ft 421 kts 182°
2026-04-12 17:24 32.24355 -84.40702 38960 ft 421 kts 182°
2026-04-12 17:24 32.21469 -84.40644 39233 ft 420 kts 182°
2026-04-12 17:25 32.18544 -84.40583 39509 ft 420 kts 182°
2026-04-12 17:25 32.15619 -84.40527 39778 ft 420 kts 182°
2026-04-12 17:25 32.12698 -84.40468 40053 ft 420 kts 183°
2026-04-12 17:25 32.09780 -84.40409 40315 ft 420 kts 183°
2026-04-12 17:26 32.06854 -84.40353 40593 ft 420 kts 183°
2026-04-12 17:26 32.03932 -84.40293 40872 ft 420 kts 184°
2026-04-12 17:26 32.01007 -84.40235 41145 ft 420 kts 184°
2026-04-12 17:26 31.98086 -84.40178 41418 ft 420 kts 184°
2026-04-12 17:27 31.95166 -84.40118 41695 ft 420 kts 184°
2026-04-12 17:27 31.92278 -84.40062 41951 ft 420 kts 185°
2026-04-12 17:27 31.89356 -84.40003 42225 ft 419 kts 185°
2026-04-12 17:27 31.86434 -84.39947 42496 ft 420 kts 185°
2026-04-12 17:28 31.83507 -84.39888 42765 ft 420 kts 185°
2026-04-12 17:28 31.80590 -84.39829 43032 ft 420 kts 185°
2026-04-12 17:28 31.77666 -84.39773 43262 ft 421 kts 186°
2026-04-12 17:29 31.71734 -84.39658 43355 ft 430 kts 185°
2026-04-12 17:29 31.65697 -84.39528 43356 ft 436 kts 184°
2026-04-12 17:29 31.62654 -84.39074 43359 ft 445 kts 173°
2026-04-12 17:30 31.59631 -84.38259 43370 ft 447 kts 172°
2026-04-12 17:30 31.53593 -84.36669 43390 ft 448 kts 174°
2026-04-12 17:31 31.47477 -84.35161 43389 ft 450 kts 173°
2026-04-12 17:31 31.41340 -84.33588 43388 ft 451 kts 173°
2026-04-12 17:32 31.35196 -84.32049 43362 ft 452 kts 173°
2026-04-12 17:32 31.29029 -84.30488 43367 ft 453 kts 173°
2026-04-12 17:33 31.22854 -84.28936 43376 ft 454 kts 173°
2026-04-12 17:33 31.16664 -84.27380 43373 ft 455 kts 173°
2026-04-12 17:34 31.10497 -84.25833 43357 ft 456 kts 173°
2026-04-12 17:34 31.04273 -84.24272 43356 ft 457 kts 173°
2026-04-12 17:35 30.98041 -84.22711 43355 ft 458 kts 173°
2026-04-12 17:35 30.91844 -84.21161 43358 ft 458 kts 173°
2026-04-12 17:36 30.85604 -84.19603 43361 ft 458 kts 173°
2026-04-12 17:36 30.79367 -84.18049 43354 ft 459 kts 173°
2026-04-12 17:37 30.74172 -84.16754 43354 ft 459 kts 173°
2026-04-12 17:37 30.67916 -84.15199 43353 ft 460 kts 173°
2026-04-12 17:38 30.61662 -84.13644 43351 ft 460 kts 173°
2026-04-12 17:38 30.55396 -84.12089 43352 ft 460 kts 173°
2026-04-12 17:39 30.49128 -84.10534 43353 ft 460 kts 173°
2026-04-12 17:39 30.42857 -84.08983 43353 ft 460 kts 173°
2026-04-12 17:40 30.36626 -84.07197 43349 ft 466 kts 163°
2026-04-12 17:40 30.30875 -84.03614 43350 ft 473 kts 149°
2026-04-12 17:41 30.25380 -83.99506 43331 ft 471 kts 154°
2026-04-12 17:41 30.20832 -83.96712 43340 ft 470 kts 155°
2026-04-12 17:42 30.15171 -83.92880 43342 ft 471 kts 153°
2026-04-12 17:42 30.09463 -83.89132 43346 ft 471 kts 154°
2026-04-12 17:43 30.00946 -83.83497 43349 ft 472 kts 153°
2026-04-12 17:43 29.95228 -83.79741 43341 ft 472 kts 153°
2026-04-12 17:44 29.86672 -83.74105 43337 ft 472 kts 153°
2026-04-12 17:45 29.81000 -83.70382 43336 ft 472 kts 153°
2026-04-12 17:45 29.75290 -83.66633 43333 ft 472 kts 153°
2026-04-12 17:46 29.69580 -83.62892 43329 ft 472 kts 153°
2026-04-12 17:46 29.63871 -83.59156 43328 ft 472 kts 153°
2026-04-12 17:47 29.58155 -83.55423 43328 ft 472 kts 153°
2026-04-12 17:47 29.52434 -83.51688 43338 ft 472 kts 153°
2026-04-12 17:48 29.46722 -83.47966 43338 ft 472 kts 153°
2026-04-12 17:48 29.41045 -83.44270 43332 ft 472 kts 153°
2026-04-12 17:49 29.35328 -83.40555 43321 ft 472 kts 153°
2026-04-12 17:49 29.29614 -83.36846 43322 ft 472 kts 153°
2026-04-12 17:50 29.23696 -83.33722 43323 ft 465 kts 168°
2026-04-12 17:50 29.20550 -83.32994 43321 ft 459 kts 179°
2026-04-12 17:50 29.17385 -83.32871 43322 ft 451 kts 189°
2026-04-12 17:51 29.11197 -83.33712 43332 ft 447 kts 194°
2026-04-12 17:51 29.04936 -83.34008 43323 ft 455 kts 182°
2026-04-12 17:52 28.98607 -83.33548 43321 ft 454 kts 184°
2026-04-12 17:52 28.92358 -83.33635 43327 ft 450 kts 188°
2026-04-12 17:53 28.86093 -83.33925 43328 ft 451 kts 187°
2026-04-12 17:53 28.79818 -83.34138 43326 ft 451 kts 188°
2026-04-12 17:54 28.73553 -83.34395 43319 ft 450 kts 188°
2026-04-12 17:54 28.67288 -83.34630 43314 ft 450 kts 188°
2026-04-12 17:55 28.61022 -83.34875 43309 ft 450 kts 188°
2026-04-12 17:55 28.54761 -83.35113 43312 ft 450 kts 188°
2026-04-12 17:56 28.48497 -83.35355 43310 ft 450 kts 188°
2026-04-12 17:56 28.42239 -83.35596 43309 ft 450 kts 188°
2026-04-12 17:57 28.35985 -83.35838 43184 ft 452 kts 188°
2026-04-12 17:57 28.32851 -83.35964 42599 ft 458 kts 187°
2026-04-12 17:57 28.29660 -83.36082 42045 ft 458 kts 187°
2026-04-12 17:57 28.26474 -83.36222 41513 ft 457 kts 189°
2026-04-12 17:58 28.23308 -83.36443 40997 ft 456 kts 189°
2026-04-12 17:58 28.20139 -83.36668 40480 ft 456 kts 189°
2026-04-12 17:58 28.16963 -83.36875 39988 ft 456 kts 189°
2026-04-12 17:58 28.13796 -83.37067 39505 ft 457 kts 187°
2026-04-12 17:59 28.10601 -83.36981 39035 ft 459 kts 184°
2026-04-12 17:59 28.07407 -83.36915 38479 ft 459 kts 184°
2026-04-12 17:59 28.04218 -83.36871 37921 ft 458 kts 183°
2026-04-12 17:59 28.01030 -83.36807 37377 ft 457 kts 182°
2026-04-12 18:00 27.97854 -83.36722 36848 ft 456 kts 181°
2026-04-12 18:00 27.94676 -83.36649 36334 ft 455 kts 181°
2026-04-12 18:00 27.91546 -83.36589 35830 ft 454 kts 180°
2026-04-12 18:00 27.88376 -83.36521 35323 ft 453 kts 180°
2026-04-12 18:01 27.85225 -83.36452 34834 ft 452 kts 179°
2026-04-12 18:01 27.82085 -83.36379 34362 ft 451 kts 178°
2026-04-12 18:01 27.78946 -83.36315 33847 ft 449 kts 178°
2026-04-12 18:01 27.75824 -83.36244 33330 ft 447 kts 178°
2026-04-12 18:02 27.72719 -83.36181 32825 ft 445 kts 178°
2026-04-12 18:02 27.69628 -83.36109 32328 ft 443 kts 178°
2026-04-12 18:02 27.66586 -83.36048 31845 ft 441 kts 178°
2026-04-12 18:02 27.63524 -83.35977 31365 ft 439 kts 178°
2026-04-12 18:03 27.60476 -83.35916 30891 ft 437 kts 178°
2026-04-12 18:03 27.57442 -83.35845 30427 ft 435 kts 178°
2026-04-12 18:03 27.54422 -83.35785 29889 ft 434 kts 178°
2026-04-12 18:03 27.51404 -83.35714 29357 ft 432 kts 178°
2026-04-12 18:04 27.48406 -83.35655 28829 ft 430 kts 178°
2026-04-12 18:04 27.45434 -83.35419 28307 ft 427 kts 170°
2026-04-12 18:04 27.42588 -83.34540 27781 ft 423 kts 154°
2026-04-12 18:04 27.40238 -83.32624 27262 ft 416 kts 130°
2026-04-12 18:05 27.38696 -83.29924 26759 ft 408 kts 112°
2026-04-12 18:05 27.37633 -83.26986 26369 ft 404 kts 108°
2026-04-12 18:05 27.36638 -83.23998 26018 ft 411 kts 109°
2026-04-12 18:05 27.35522 -83.21054 25676 ft 418 kts 113°
2026-04-12 18:06 27.34062 -83.18200 25329 ft 424 kts 122°
2026-04-12 18:06 27.32318 -83.15515 25015 ft 426 kts 125°
2026-04-12 18:06 27.30520 -83.12858 24701 ft 427 kts 124°
2026-04-12 18:06 27.28853 -83.10090 24390 ft 427 kts 120°
2026-04-12 18:07 27.27282 -83.07256 24082 ft 427 kts 120°
2026-04-12 18:07 27.25633 -83.04469 23758 ft 428 kts 122°
2026-04-12 18:07 27.23946 -83.01718 23393 ft 427 kts 122°
2026-04-12 18:07 27.22288 -82.98951 23036 ft 426 kts 122°
2026-04-12 18:08 27.20648 -82.96179 22676 ft 425 kts 122°
2026-04-12 18:08 27.19007 -82.93415 22356 ft 424 kts 122°
2026-04-12 18:08 27.17367 -82.90680 22053 ft 422 kts 122°
2026-04-12 18:08 27.15732 -82.87956 21756 ft 420 kts 122°
2026-04-12 18:09 27.14108 -82.85241 21463 ft 418 kts 123°
2026-04-12 18:09 27.12095 -82.82890 21152 ft 420 kts 140°
2026-04-12 18:09 27.09710 -82.80996 20862 ft 419 kts 145°
2026-04-12 18:09 27.07241 -82.79264 20576 ft 418 kts 147°
2026-04-12 18:10 27.04804 -82.77502 20296 ft 416 kts 143°
2026-04-12 18:10 27.02468 -82.75598 20013 ft 415 kts 141°
2026-04-12 18:10 27.00118 -82.73724 19734 ft 413 kts 143°
2026-04-12 18:10 26.97772 -82.71936 19458 ft 403 kts 144°
2026-04-12 18:11 26.95512 -82.70213 19191 ft 394 kts 143°
2026-04-12 18:11 26.93365 -82.68365 18912 ft 384 kts 135°
2026-04-12 18:11 26.91432 -82.66313 18637 ft 381 kts 135°
2026-04-12 18:11 26.89477 -82.64310 18330 ft 380 kts 135°
2026-04-12 18:12 26.87552 -82.62288 18010 ft 379 kts 135°
2026-04-12 18:12 26.85624 -82.60271 17678 ft 379 kts 135°
2026-04-12 18:12 26.83703 -82.58257 17353 ft 379 kts 135°
2026-04-12 18:12 26.81769 -82.56253 17027 ft 378 kts 135°
2026-04-12 18:13 26.79851 -82.54243 16696 ft 378 kts 135°
2026-04-12 18:13 26.77923 -82.52239 16269 ft 376 kts 135°
2026-04-12 18:13 26.76035 -82.50266 15836 ft 368 kts 135°
2026-04-12 18:13 26.74176 -82.48338 15411 ft 361 kts 135°
2026-04-12 18:14 26.72351 -82.46430 14984 ft 357 kts 135°
2026-04-12 18:14 26.70538 -82.44550 14538 ft 354 kts 135°
2026-04-12 18:14 26.68740 -82.42674 14084 ft 352 kts 135°
2026-04-12 18:14 26.66947 -82.40817 13561 ft 350 kts 135°
2026-04-12 18:15 26.65165 -82.38958 13086 ft 348 kts 134°
2026-04-12 18:15 26.63367 -82.37201 12638 ft 347 kts 140°
2026-04-12 18:15 26.61343 -82.35735 12193 ft 346 kts 145°
2026-04-12 18:15 26.59335 -82.34261 11755 ft 343 kts 144°
2026-04-12 18:16 26.57355 -82.32831 11321 ft 332 kts 144°
2026-04-12 18:16 26.55463 -82.31456 10892 ft 317 kts 144°
2026-04-12 18:16 26.53643 -82.30143 10518 ft 305 kts 143°
2026-04-12 18:16 26.51893 -82.28862 10164 ft 296 kts 143°
2026-04-12 18:17 26.50183 -82.27631 9774 ft 289 kts 144°
2026-04-12 18:17 26.48510 -82.26409 9384 ft 285 kts 143°
2026-04-12 18:17 26.46851 -82.25217 9001 ft 282 kts 143°
2026-04-12 18:17 26.45237 -82.24038 8627 ft 279 kts 143°
2026-04-12 18:18 26.43614 -82.22872 8252 ft 276 kts 144°
2026-04-12 18:18 26.42014 -82.21703 7910 ft 273 kts 143°
2026-04-12 18:18 26.40420 -82.20561 7591 ft 271 kts 143°
2026-04-12 18:18 26.38847 -82.19413 7285 ft 270 kts 143°
2026-04-12 18:19 26.37271 -82.18283 6998 ft 268 kts 143°
2026-04-12 18:19 26.35716 -82.17150 6715 ft 266 kts 143°
2026-04-12 18:19 26.34168 -82.16039 6425 ft 264 kts 143°
2026-04-12 18:19 26.32630 -82.14921 6157 ft 262 kts 143°
2026-04-12 18:20 26.31102 -82.13825 5909 ft 260 kts 144°
2026-04-12 18:20 26.29590 -82.12726 5660 ft 259 kts 143°
2026-04-12 18:20 26.28076 -82.11639 5407 ft 258 kts 143°
2026-04-12 18:20 26.26571 -82.10548 5163 ft 258 kts 143°
2026-04-12 18:21 26.25082 -82.09478 4915 ft 258 kts 144°
2026-04-12 18:21 26.23576 -82.08391 4662 ft 258 kts 143°
2026-04-12 18:21 26.22073 -82.07306 4460 ft 257 kts 144°
2026-04-12 18:21 26.20575 -82.06230 4260 ft 256 kts 143°
2026-04-12 18:22 26.19084 -82.05151 4058 ft 256 kts 144°
2026-04-12 18:22 26.17590 -82.04080 3859 ft 256 kts 143°
2026-04-12 18:22 26.16097 -82.02999 3665 ft 257 kts 144°
2026-04-12 18:22 26.14589 -82.01923 3462 ft 257 kts 143°
2026-04-12 18:23 26.13095 -82.00836 3264 ft 257 kts 144°
2026-04-12 18:23 26.11585 -81.99763 3065 ft 257 kts 143°
2026-04-12 18:23 26.10088 -81.98673 2869 ft 256 kts 144°
2026-04-12 18:23 26.08711 -81.97462 2679 ft 248 kts 124°
2026-04-12 18:24 26.08117 -81.95716 2550 ft 239 kts 103°
2026-04-12 18:24 26.07579 -81.93987 2423 ft 233 kts 107°
2026-04-12 18:24 26.07133 -81.92305 2293 ft 219 kts 103°
2026-04-12 18:24 26.06855 -81.91247 2201 ft 210 kts 105°
2026-04-12 18:25 26.06423 -81.89230 2027 ft 197 kts 89°
2026-04-12 18:25 26.06593 -81.87738 1889 ft 192 kts 75°
2026-04-12 18:25 26.07155 -81.86434 1835 ft 182 kts 58°
2026-04-12 18:25 26.07989 -81.85399 1795 ft 179 kts 44°
2026-04-12 18:26 26.08889 -81.84470 1769 ft 176 kts 46°
2026-04-12 18:26 26.09475 -81.83841 1686 ft 172 kts 46°
2026-04-12 18:26 26.10292 -81.82949 1484 ft 154 kts 47°
2026-04-12 18:26 26.11009 -81.82163 1231 ft 131 kts 47°
2026-04-12 18:27 26.11618 -81.81502 1000 ft 117 kts 46°
2026-04-12 18:27 26.12203 -81.80871 830 ft 116 kts 48°
2026-04-12 18:27 26.12758 -81.80269 669 ft 109 kts 47°
2026-04-12 18:27 26.13285 -81.79692 461 ft 99 kts 46°
2026-04-12 18:28 26.13766 -81.79161 364 ft 102 kts 48°
2026-04-12 18:28 26.14302 -81.78583 209 ft 109 kts 44°
2026-04-12 18:28 26.14828 -81.78023 48 ft 99 kts 44°
2026-04-12 18:28 26.15256 -81.77559 14 ft 66 kts 44°
2026-04-12 18:29 26.15443 -81.77361 17 ft 17 kts 50°
2026-04-12 18:29 26.15480 -81.77266 18 ft 11 kts 83°
2026-04-12 18:29 26.15481 -81.77178 17 ft 13 kts 89°
2026-04-12 18:29 26.15429 -81.77107 14 ft 11 kts 172°
2026-04-12 18:30 26.15404 -81.77098 14 ft 0 kts 112°